RH
66 66 62 72 94 94 95 97 99 97 98 100 97 85 84 91 100 100 97 85 83 71 74 82 69 55 57 66 82 58 71 70 91 88 80 83 74 66 49 46 46 51 58 55 60 85 63 45 46 43 48 52 49 48
67 69 60 70 96 94 97 96 99 96 98 99 97 85 84 92 98 100 99 93 94 79 82 91 86 80 68 58 62 64 61 61 80 90 76 66 62 64 50 50 55 48 45 41 42 42 58 54 52 53 46 49 49 48
70 70 62 68 96 93 98 98 99 98 98 96 99 86 86 94 99 99 98 96 93 87 84 79 81 83 80 79 64 54 64 51 60 61 69 72 65 60 56 53 54 57 56 50 54 59 58 56 54 49 45 49 48 48
76 68 63 69 96 95 100 99 100 98 98 95 99 88 88 92 99 100 97 87 87 79 80 80 78 79 80 73 69 65 59 67 60 60 69 69 64 66 64 56 52 51 55 57 66 65 58 55 50 51 55 54 54 54
81 70 68 70 97 97 100 100 100 98 86 83 99 90 89 92 96 100 100 89 84 82 83 85 78 83 84 77 71 68 62 61 61 69 71 74 71 71 80 66 60 55 51 50 47 48 47 49 52 53 55 58 55 58
79 74 72 72 98 95 100 100 100 99 94 95 97 90 89 94 99 99 99 100 94 83 90 98 80 77 78 78 74 74 72 71 73 74 84 83 80 67 78 68 55 54 56 50 46 48 56 48 53 55 59 63 63 60
78 77 74 75 98 96 100 100 100 99 92 100 95 90 91 96 100 96 93 99 98 83 89 99 99 80 76 76 78 74 73 80 74 82 82 80 81 69 69 66 50 60 59 61 59 59 68 58 63 62 65 68 71 70
79 78 74 77 97 98 100 100 100 100 100 100 94 92 96 100 99 95 99 97 89 87 86 100 99 96 76 89 87 80 81 78 84 84 84 75 84 75 77 60 61 65 64 63 66 66 55 64 70 76 78 75 70 64
80 79 75 80 92 97 100 100 98 100 100 99 95 97 99 90 95 93 79 74 70 74 96 93 100 100 81 94 91 85 88 94 89 83 84 80 78 90 69 61 66 70 66 74 82 84 83 85 95 93 84 70 58 60
81 79 76 83 90 95 100 100 100 100 100 98 99 92 100 94 86 78 74 82 94 94 89 87 82 99 89 90 96 88 90 98 100 98 91 95 83 68 65 59 60 68 74 78 90 100 96 99 98 90 62 58 55 60
82 80 78 88 91 100 100 99 100 100 100 91 96 98 100 91 69 87 98 94 90 97 86 89 80 94 84 91 91 86 96 96 99 88 87 91 90 77 77 78 77 80 77 67 62 65 62 59 59 58 61 62 67 72
82 82 80 90 93 100 100 98 99 96 94 84 95 93 77 82 88 90 97 98 97 92 97 92 92 81 87 80 87 85 92 86 88 81 92 92 75 73 76 77 73 72 69 63 58 51 44 46 49 51 58 63 69 77
83 82 83 93 99 100 100 98 98 91 87 84 90 100 91 99 97 93 98 99 99 98 100 99 99 86 81 76 85 78 86 85 82 91 88 75 73 75 74 78 80 71 58 53 53 53 55 59 62 59 61 70 77 80
86 80 90 97 100 100 100 97 100 99 90 98 100 100 97 100 92 87 81 89 85 99 98 94 97 88 78 86 78 84 80 75 88 92 80 62 69 68 72 80 76 65 54 54 56 55 58 58 58 63 63 68 70 70
84 83 91 96 96 100 100 100 100 91 98 100 99 98 99 94 96 91 93 96 99 91 93 96 95 82 90 88 77 89 93 88 72 73 68 73 80 76 78 82 76 61 60 56 53 51 52 54 54 58 60 59 65 67
80 80 84 95 96 100 100 99 100 94 100 100 99 96 93 96 97 96 97 99 98 82 85 88 94 92 96 86 89 89 81 82 73 82 75 74 65 65 70 71 62 56 52 51 53 54 59 59 60 64 66 63 58 56
78 81 92 97 96 99 100 100 98 100 100 99 97 83 89 91 92 89 83 88 79 77 89 88 84 90 91 94 93 82 86 76 80 78 75 74 69 62 54 55 55 54 55 57 59 58 63 72 72 68 66 68 59 53
74 90 99 98 99 99 100 100 100 100 98 98 96 95 85 82 84 83 93 88 84 81 80 80 85 98 96 98 96 83 85 93 87 78 78 70 65 65 65 66 70 70 70 69 68 74 78 79 74 74 76 67 62 63
94 99 97 98 99 100 100 100 100 97 97 97 96 93 91 94 95 91 90 84 83 80 85 82 77 82 76 76 77 90 91 83 76 72 69 65 64 68 78 85 85 84 80 80 74 73 79 79 77 74 67 65 62 64
65 73 95 94 94 99 98 99 99 98 97 99 98 97 96 98 100 96 91 90 89 97 92 76 60 62 64 72 77 78 78 70 68 73 78 76 78 85 88 83 78 81 82 87 87 82 78 74 73 71 69 67 64 65
65 72 84 91 99 99 99 98 98 99 98 96 98 97 98 100 100 100 100 99 100 99 84 75 83 85 84 80 75 70 70 60 58 56 68 80 77 78 83 88 87 81 77 78 75 79 75 73 78 78 77 66 65 76
78 88 92 88 96 97 96 98 98 97 95 97 97 98 98 98 98 99 100 98 97 93 82 79 86 82 83 82 81 81 83 82 82 77 74 74 77 81 82 86 80 87 84 87 83 80 80 79 75 72 71 76 78 78
72 70 80 79 82 85 96 96 96 96 96 96 97 96 96 96 97 99 97 96 93 92 88 87 88 82 81 81 80 81 74 73 78 79 80 83 88 90 89 86 89 90 92 92 86 84 85 81 76 70 71 67 70 68
65 85 94 93 91 97 82 95 94 95 95 94 95 94 94 96 96 97 94 93 93 89 86 86 79 82 80 85 84 87 90 85 88 92 90 86 89 92 93 91 91 90 87 91 91 93 86 79 74 65 69 79 79 70
73 83 83 91 88 87 94 94 95 93 94 94 94 94 94 94 95 95 94 94 93 93 91 83 80 80 90 92 86 91 94 88 83 90 94 86 91 92 96 96 97 98 90 93 91 86 82 67 69 77 82 84 80 66
92 97 90 99 96 89 93 94 95 95 94 94 94 94 94 94 94 94 91 93 93 93 93 93 86 84 82 78 82 82 92 90 85 86 98 92 86 88 92 91 91 96 95 89 81 79 79 73 73 72 79 80 84 67
86 96 92 80 88 86 85 81 78 87 95 95 94 94 94 94 94 91 90 90 92 94 96 96 96 82 84 87 94 98 98 92 86 93 99 95 89 85 84 89 89 87 83 72 60 57 64 72 78 77 76 71 68 68
81 86 87 90 94 93 95 95 96 91 90 84 92 94 94 88 91 91 92 96 96 95 96 97 92 89 94 99 100 100 100 99 96 96 97 97 96 89 82 74 68 65 61 60 58 58 62 68 70 71 69 68 66 67
95 93 87 98 100 100 100 92 89 90 87 88 84 89 92 86 91 91 94 98 96 96 92 93 100 96 96 96 95 95 97 94 86 89 91 93 91 100 91 83 74 71 73 78 83 76 74 71 70 65 66 68 68 66
91 95 98 97 100 100 99 94 97 94 87 86 81 88 86 89 97 99 100 97 96 94 97 97 98 94 97 95 98 100 95 88 78 79 88 90 90 97 93 86 84 80 79 86 97 97 79 73 70 68 69 71 72 76
93 95 99 100 100 99 96 90 92 85 94 95 94 92 93 94 95 99 97 99 99 98 97 98 98 94 95 96 94 94 94 94 90 80 76 76 84 82 73 65 61 58 57 57 63 65 70 69 71 73 76 80 78 82
92 94 95 100 100 95 93 94 97 99 98 96 97 97 97 94 99 91 100 97 97 96 96 95 93 96 92 93 92 90 88 90 93 88 81 75 68 68 69 70 69 69 69 70 72 73 74 76 78 82 85 80 74 74
96 96 96 97 100 100 96 94 96 99 97 100 98 97 97 94 98 93 97 100 98 96 96 96 96 96 96 96 96 99 95 94 91 89 78 70 70 75 78 80 82 82 78 77 79 81 80 81 83 83 81 78 75 72
Wind_Speed
30 32 33 34 35 33 30 32 28 24 27 26 23 17 18 19 18 19 4 16 4 2 1 1 1 3 4 3 4 4 4 1 1 1 3 2 3 4 3 6 10 10 8 5 6 5 9 6 5 6 4 8 12 13
29 30 33 34 35 34 32 32 30 25 24 24 23 18 19 19 18 19 4 13 12 2 2 0 2 1 1 1 4 1 0 5 4 3 2 4 3 2 6 5 1 6 3 3 7 4 2 0 2 2 8 13 9 12
28 30 33 34 36 34 33 33 30 23 24 21 23 19 20 19 19 20 6 15 5 2 1 1 1 2 4 2 3 3 2 3 4 1 3 1 2 3 5 3 4 2 2 2 4 2 1 1 5 5 10 11 10 12
27 30 32 34 37 33 33 33 31 24 23 18 22 21 21 19 19 18 7 16 3 2 2 2 2 1 7 4 4 2 4 6 5 2 2 2 2 2 2 2 2 1 8 6 1 1 5 3 5 10 11 12 12 9
26 28 32 34 36 34 34 34 32 25 23 15 22 22 21 19 18 17 15 10 10 1 3 2 0 4 8 4 6 9 9 5 2 2 1 2 3 3 1 1 3 6 6 5 3 12 2 13 11 12 14 11 10 12
27 27 31 34 35 34 33 34 33 24 15 17 24 23 21 19 17 9 2 10 15 7 3 3 2 2 5 8 11 8 4 4 2 2 2 2 1 1 4 4 2 6 4 2 3 10 2 14 13 8 12 10 8 9
26 27 30 33 33 35 33 34 33 18 17 26 25 23 20 19 21 2 2 5 17 8 3 3 2 1 2 1 2 3 3 3 2 2 2 2 2 2 2 4 4 9 7 5 11 12 8 11 7 10 11 10 11 10
25 26 29 32 32 34 34 36 31 15 25 30 27 23 19 18 10 2 4 10 14 6 1 3 1 2 1 2 2 2 2 1 4 2 2 2 2 1 5 6 5 9 8 10 5 3 7 13 13 11 11 9 8 6
24 25 29 31 32 34 35 39 30 15 34 32 29 24 12 4 3 5 11 10 6 2 3 2 5 3 2 2 1 2 2 2 2 1 2 2 3 5 6 10 13 13 11 13 8 9 10 12 10 9 8 6 7 5
23 24 28 31 31 34 34 38 27 39 38 36 27 4 2 6 17 14 3 2 3 3 2 2 2 3 1 1 1 2 1 2 2 1 0 2 4 5 4 7 11 13 12 16 14 6 7 5 8 8 7 6 5 6
20 22 25 29 29 31 33 34 10 43 42 11 3 2 7 20 3 3 2 2 1 1 3 3 3 4 1 2 3 1 2 1 3 2 2 2 4 4 4 7 8 10 14 11 8 9 10 13 12 10 7 6 6 6
18 21 24 25 27 30 33 27 9 33 13 9 18 13 6 3 2 4 3 1 4 5 4 6 4 3 2 1 3 1 2 1 3 2 2 4 3 2 7 9 11 12 13 7 8 12 11 10 10 9 7 6 6 5
16 19 23 23 26 29 32 20 6 25 33 12 5 4 4 1 4 9 10 5 4 6 5 5 4 4 3 2 3 2 3 2 4 3 4 4 1 3 6 7 10 10 10 11 12 13 15 12 10 8 8 6 6 4
15 18 20 20 25 27 29 26 21 28 8 3 4 8 7 5 7 5 5 5 3 5 10 7 4 3 2 2 3 4 2 3 3 3 6 2 5 8 7 7 13 13 12 13 12 11 11 11 10 8 7 6 5 3
14 18 15 20 26 28 27 15 4 13 3 3 3 5 5 3 2 1 2 4 2 9 8 6 4 3 2 4 2 4 4 4 6 5 2 2 6 9 10 11 12 12 11 9 8 8 9 10 9 7 5 4 3 3
15 13 10 22 25 27 22 11 5 4 2 2 2 3 4 3 2 3 3 4 3 9 3 3 4 3 2 5 5 6 8 7 3 3 2 6 9 9 12 11 10 10 10 8 9 8 10 9 8 7 6 4 4 5
9 5 17 22 26 21 15 4 4 3 2 3 2 3 2 2 4 3 4 4 7 7 3 3 5 3 5 4 6 4 5 2 2 2 4 7 9 10 10 9 9 8 8 10 10 9 9 9 10 7 5 3 5 6
5 16 17 22 23 14 7 7 2 2 4 2 2 3 2 2 6 4 2 4 5 3 3 2 5 4 6 7 4 3 2 1 1 5 6 8 9 9 8 10 9 11 10 10 10 10 9 10 7 5 7 8 10 10
10 12 18 19 15 5 3 4 4 3 3 1 2 2 3 2 2 4 3 4 4 3 5 1 3 2 3 3 3 3 3 3 6 6 7 8 10 9 10 12 12 10 11 9 9 9 8 7 7 8 9 8 9 8
13 12 19 15 12 3 3 3 4 2 1 1 2 2 2 2 2 4 5 2 2 2 3 2 1 0 1 1 2 3 6 8 10 10 6 5 8 11 8 9 8 11 11 12 12 12 11 9 8 8 9 10 10 8
9 12 12 12 6 7 3 3 2 2 1 2 1 1 2 1 2 2 2 1 2 1 2 2 3 3 5 5 7 6 6 5 6 6 6 5 4 9 9 9 13 11 10 9 8 9 8 8 9 9 11 10 10 9
7 12 6 6 3 4 2 3 2 2 1 1 2 2 2 2 2 2 2 3 2 2 2 3 4 5 6 6 6 9 10 15 15 15 16 15 5 4 4 7 8 4 7 8 9 10 10 10 11 11 11 10 10 8
9 8 3 7 4 5 2 5 2 4 2 2 1 2 2 2 2 1 3 2 2 3 2 4 5 10 10 9 13 15 14 13 7 6 10 11 11 10 9 8 9 10 7 7 10 13 13 12 11 12 11 10 8 6
6 5 4 3 3 3 3 4 3 2 2 2 2 2 2 2 3 2 3 2 2 2 4 7 6 6 5 5 5 5 8 11 13 12 9 11 6 8 9 8 7 8 8 14 13 13 12 12 12 11 9 8 6 4
5 6 4 5 4 5 4 3 4 3 2 3 2 2 2 2 2 2 2 2 2 3 3 3 4 4 5 5 4 6 9 8 6 7 6 9 12 10 9 9 9 9 13 16 12 13 12 12 10 9 7 5 4 3
4 3 3 1 3 2 2 3 4 3 2 2 2 1 1 1 3 3 2 3 2 3 3 3 3 5 5 4 5 3 4 9 11 7 5 5 6 7 6 6 4 4 9 12 18 14 12 10 9 7 5 4 3 1
2 2 0 1 0 1 2 2 2 1 3 3 1 2 2 3 2 2 1 3 2 4 5 4 3 3 5 7 9 8 8 8 7 11 12 9 7 7 10 8 7 10 12 13 13 14 13 10 8 6 4 2 0 2
2 2 2 2 2 1 2 1 2 2 2 2 1 3 2 2 1 2 2 3 4 5 9 12 14 15 13 11 11 14 14 19 20 20 19 17 13 11 11 12 17 16 15 13 12 11 10 9 7 5 3 0 3 5
0 1 2 3 3 2 1 1 0 1 3 1 1 2 2 2 2 2 4 4 4 5 7 8 9 13 15 13 11 13 17 14 8 5 6 5 4 8 15 17 17 16 15 13 9 8 8 5 5 3 1 3 5 7
2 1 3 1 2 1 1 1 0 1 2 2 2 3 2 2 3 4 3 4 4 4 4 6 7 7 7 9 10 9 7 4 3 4 5 4 6 17 16 15 14 12 10 10 13 11 5 4 2 2 4 6 7 9
2 2 3 2 1 1 2 2 1 2 2 3 3 3 2 2 2 5 6 3 2 5 7 5 5 7 8 8 6 5 3 3 4 5 8 17 22 18 15 12 11 10 9 9 7 5 2 1 2 4 7 9 10 11
3 2 3 2 1 2 1 1 1 2 3 2 3 2 1 1 2 2 8 4 2 2 2 5 5 4 7 6 5 3 2 6 8 10 17 23 19 16 14 12 10 9 7 6 4 2 0 2 5 7 9 11 13 14
2 2 3 2 2 2 1 3 3 2 3 2 2 1 1 1 2 0 3 6 1 1 2 4 5 8 8 8 9 9 10 11 12 15 18 17 16 14 12 10 8 6 4 2 0 2 4 6 7 8 10 12 14 16
Wind_Direction
325 325 325 322 326 329 327 328 324 305 304 327 212 209 209 208 210 201 210 199 208 218 306 219 305 154 135 185 146 164 135 63 69 91 122 182 219 187 156 142 168 174 177 189 200 193 248 148 131 206 102 123 133 129
322 323 323 321 325 327 326 326 322 306 299 319 211 206 206 207 207 199 189 192 203 243 21 124 59 332 291 19 123 244 103 150 166 104 235 139 161 163 180 182 165 191 202 191 207 209 37 31 344 97 153 137 132 123
320 322 324 322 323 325 327 326 324 306 301 306 213 204 203 202 207 196 191 162 166 165 120 209 153 328 27 5 202 157 214 150 162 50 143 127 188 177 173 188 127 217 164 188 169 176 285 182 109 118 127 116 117 120
318 321 323 321 322 325 326 325 325 303 297 283 211 202 198 199 202 201 191 190 174 130 151 117 357 13 337 343 198 225 130 104 107 134 130 153 162 223 174 94 194 92 157 154 160 159 115 158 152 134 121 115 110 101
314 319 321 321 323 325 326 327 325 302 288 254 204 197 193 196 199 208 212 207 206 278 138 128 60 15 16 56 103 122 127 115 130 124 119 124 111 150 53 104 197 191 159 186 205 179 166 173 156 147 137 134 130 127
316 317 320 320 324 326 326 328 326 303 263 213 197 190 188 190 191 157 199 215 205 183 122 146 20 24 21 62 67 65 66 75 84 103 108 113 64 227 168 203 170 173 187 211 149 148 82 141 140 140 127 126 116 114
315 317 319 321 326 326 327 329 323 301 248 197 185 181 183 189 178 176 216 157 171 159 111 105 150 352 336 23 53 39 37 65 64 104 85 115 124 195 182 212 166 175 168 125 129 115 109 154 152 136 127 121 110 102
315 316 321 322 326 327 329 328 325 276 204 182 173 171 175 179 158 143 119 139 150 111 74 122 123 164 323 87 104 352 81 69 33 95 124 130 147 203 237 212 158 154 136 138 121 14 131 122 120 117 118 123 115 121
315 317 321 323 327 329 330 329 317 242 176 166 159 155 139 157 132 164 126 119 125 109 119 127 155 179 136 89 87 52 5 76 350 98 128 196 179 220 218 184 177 171 169 154 103 98 113 118 119 125 121 133 142 153
313 318 323 324 329 332 332 328 316 171 163 155 139 127 147 177 138 132 145 76 32 357 66 106 105 136 139 132 82 113 3 101 128 83 3 232 251 261 232 214 173 168 143 139 121 113 117 120 147 155 158 154 153 162
312 318 323 327 332 333 334 332 187 158 153 147 129 113 127 135 110 32 97 148 210 282 158 127 147 130 223 129 123 352 141 65 160 172 224 260 266 233 170 148 137 137 154 161 150 141 156 149 153 151 148 148 156 165
313 319 324 329 333 337 338 329 282 152 169 156 113 116 116 88 73 134 169 149 208 208 153 144 136 118 121 104 102 30 108 148 176 134 215 248 251 89 143 134 138 144 153 133 135 131 131 131 135 131 134 150 158 152
314 321 328 331 335 340 341 330 238 155 136 128 86 100 146 160 180 183 183 194 192 171 169 154 131 127 135 81 83 123 129 144 126 188 234 238 111 152 148 127 124 125 123 125 113 111 115 113 117 129 131 123 120 115
314 322 328 331 342 343 342 329 169 145 86 85 138 142 189 185 221 183 187 160 144 147 143 126 108 113 118 104 142 118 107 153 178 235 235 203 179 152 141 133 134 136 136 128 124 125 129 135 129 119 112 122 135 152
320 324 328 342 345 343 341 322 155 137 83 122 142 185 189 96 44 72 115 113 157 146 132 116 89 101 108 116 92 124 151 205 218 233 233 170 157 144 143 147 136 137 137 134 134 137 141 135 127 115 114 129 148 160
329 327 343 341 346 342 343 341 92 80 70 108 100 106 106 100 134 160 156 131 152 150 104 69 115 112 129 141 155 198 173 216 221 200 155 139 146 137 142 143 137 133 137 134 140 135 126 131 136 133 130 137 170 180
335 338 334 340 344 341 350 12 42 65 104 104 95 83 110 101 166 165 145 149 157 158 116 135 128 144 118 150 187 196 209 217 162 150 143 141 133 124 118 115 121 125 126 127 125 128 124 133 137 141 145 125 129 126
334 341 345 342 345 341 353 23 64 68 71 54 119 135 106 98 141 139 149 140 138 129 134 161 129 148 166 172 204 212 160 89 78 135 119 117 116 118 123 125 125 125 120 118 122 128 137 143 139 126 127 129 119 116
342 346 346 345 348 330 336 13 11 71 61 101 110 80 87 103 52 103 88 71 81 100 117 125 103 159 195 202 188 150 150 145 137 119 109 110 118 117 107 104 110 112 121 131 143 139 131 132 133 139 139 139 128 135
326 328 348 353 2 345 357 13 2 54 59 42 69 79 84 91 89 89 86 62 78 73 44 51 109 181 196 157 183 131 138 135 129 121 111 97 93 98 103 122 128 128 122 121 120 126 122 106 104 122 131 131 128 124
331 341 342 4 3 29 31 351 30 23 28 62 19 62 74 74 95 108 101 118 87 93 107 60 74 67 56 69 84 114 104 119 124 126 134 126 106 112 118 122 137 140 136 139 134 131 120 120 127 126 125 115 115 113
335 339 338 356 15 352 52 5 339 345 47 52 46 24 82 74 89 79 94 66 62 69 99 115 122 115 86 58 61 67 92 91 82 87 91 113 123 126 129 139 136 117 114 125 131 129 125 130 131 126 120 118 118 107
335 351 12 16 17 21 351 350 28 7 44 42 30 67 38 55 47 5 79 64 79 19 65 93 87 91 102 90 78 62 69 85 85 85 94 97 97 95 100 94 113 121 118 107 124 126 126 128 124 121 120 120 117 103
353 35 30 18 22 351 342 14 5 9 35 37 45 56 25 28 333 67 82 52 54 25 93 109 122 109 91 69 72 70 68 99 100 90 94 105 96 75 80 88 89 95 118 129 126 123 124 122 127 123 121 116 106 94
52 337 46 341 339 13 19 5 357 17 56 29 68 45 16 320 76 65 70 57 39 44 67 89 83 65 102 96 88 73 67 89 101 103 67 103 116 109 88 82 87 112 139 131 127 128 128 130 127 123 116 109 109 91
60 318 43 281 321 49 343 13 4 13 13 51 43 348 318 47 64 65 53 9 18 14 7 42 103 107 83 89 120 102 81 104 106 92 89 131 131 133 138 138 135 127 158 159 146 138 135 137 136 135 129 119 106 35
41 307 291 157 209 18 5 346 341 16 21 31 31 24 30 59 68 70 73 21 16 16 16 22 39 86 119 109 97 97 110 120 121 120 120 112 120 152 160 150 148 150 151 153 152 150 148 150 149 147 142 143 252 325
175 178 157 256 60 18 137 31 20 37 359 337 332 46 70 30 83 31 12 8 35 70 77 76 89 103 105 108 114 115 107 115 113 110 103 90 94 110 118 122 128 131 134 140 143 145 148 148 149 151 145 89 330 324
179 171 106 27 18 42 60 95 105 28 352 298 83 82 86 57 5 355 6 9 50 84 81 85 76 100 100 98 100 116 126 129 132 126 112 121 115 92 121 127 127 127 128 124 123 129 124 124 129 125 45 327 319 319
215 131 99 116 123 221 264 331 324 281 25 62 89 112 95 77 29 22 26 41 45 65 84 113 122 127 128 132 130 120 122 104 117 147 145 154 153 144 138 134 132 134 137 137 138 138 126 141 110 5 344 335 332 326
116 86 80 89 168 265 244 310 17 44 35 47 12 73 84 122 102 43 42 44 88 134 138 129 111 134 137 140 134 130 114 115 117 136 137 145 145 141 140 138 139 139 142 146 154 159 149 65 349 332 327 324 322 316
161 163 124 142 274 308 232 46 37 53 359 52 23 55 66 105 82 356 8 20 86 125 107 154 137 141 139 135 134 126 161 152 142 138 145 144 141 140 139 135 133 136 137 135 133 133 331 318 313 312 313 314 315 316
69 65 76 101 55 355 285 88 31 38 29 42 30 34 60 34 157 356 13 19 13 193 147 146 134 133 127 118 115 112 118 126 130 136 141 140 138 136 135 133 134 134 131 134 243 304 305 305 306 308 310 313 316 319